Location: Newark
(55.7083°N, 13.1992°E)
Time: 17:06:56
(UTC+00:00)

Transit 4A - Pass Details

Date: 18 February 2020
Orbit: 871 x 973 km, 66.8° (Epoch: 05 April)

Event Time Altitude Azimuth Distance (km) Brightness Sun altitude
Exits shadow 01:10:31 23° 47° (NE) 1,802 9.8 -41.3°
Drops below altitude 10° 01:12:31 10° 45° (NE) 2,531 10.8 -41.1°
Sets 01:14:59 0° 44° (NE) 3,472 11.7 -40.9°
